When you browse on this site, cookies collect data to enhance your experience and personalize the content and advertising you see.
Visit our Privacy Policy to learn more. By continuing to use the site, you agree to this use of cookies and data.
  • In Latvia
  • List of Countries
  • For 7 days
  • Water Temperature
  • Weather Map
  • Weather Widgets
  • user-avatar
    Login

    Hourly Weather Solden

    Today, 18 February, Tuesday

    Time Temperature Precipitation Wind Pressure Humidity
    00:00 -2°C° 0.2 mm 1 mps 583 mmHg 94%
    01:00 -2°C° 0.2 mm 1 mps 583 mmHg 95%
    02:00 -3°C° 0.4 mm 1 mps 583 mmHg 94%
    03:00 -5°C° 0.4 mm 2 mps 583 mmHg 92%
    04:00 -5°C° 0.4 mm 2 mps 583 mmHg 91%
    05:00 -6°C° 0.1 mm 2 mps 583 mmHg 89%
    06:00 -7°C° 0.1 mm 2 mps 583 mmHg 87%
    07:00 -8°C° 0.1 mm 2 mps 582 mmHg 84%
    08:00 -6°C° 0 mm 2 mps 583 mmHg 80%
    09:00 -5°C° 0 mm 2 mps 584 mmHg 75%
    10:00 -2°C° 0 mm 1 mps 585 mmHg 70%
    11:00 -1°C° 0 mm 1 mps 585 mmHg 67%
    12:00 -1°C° 0 mm 1 mps 585 mmHg 64%
    13:00 0°C° 0 mm 1 mps 586 mmHg 61%
    14:00 0°C° 0 mm 1 mps 585 mmHg 62%
    15:00 0°C° 0 mm 1 mps 585 mmHg 64%
    16:00 -1°C° 0 mm 1 mps 585 mmHg 65%
    17:00 -2°C° 0 mm 1 mps 584 mmHg 70%
    18:00 -4°C° 0 mm 1 mps 584 mmHg 75%
    19:00 -6°C° 0 mm 1 mps 583 mmHg 80%
    20:00 -7°C° 0 mm 1 mps 583 mmHg 79%
    21:00 -7°C° 0 mm 1 mps 583 mmHg 78%
    22:00 -8°C° 0 mm 1 mps 583 mmHg 78%
    23:00 -8°C° 0 mm 1 mps 582 mmHg 77%

    Tomorrow, 19 February, Wednesday

    Time Temperature Precipitation Wind Pressure Humidity
    00:00 -8°C° 0 mm 1 mps 582 mmHg 76%
    01:00 -9°C° 0 mm 1 mps 582 mmHg 75%
    02:00 -9°C° 0 mm 1 mps 581 mmHg 75%
    03:00 -9°C° 0 mm 1 mps 581 mmHg 75%
    04:00 -9°C° 0 mm 1 mps 580 mmHg 75%
    05:00 -9°C° 0 mm 1 mps 580 mmHg 74%
    06:00 -9°C° 0 mm 1 mps 580 mmHg 72%
    07:00 -9°C° 0 mm 1 mps 580 mmHg 71%
    08:00 -7°C° 0 mm 1 mps 580 mmHg 66%
    09:00 -6°C° 0 mm 1 mps 581 mmHg 61%
    10:00 -4°C° 0 mm 1 mps 582 mmHg 56%
    11:00 -3°C° 0 mm 1 mps 582 mmHg 53%
    12:00 -2°C° 0 mm 1 mps 582 mmHg 51%
    13:00 -3°C° 0 mm 2 mps 582 mmHg 49%
    14:00 -4°C° 0.1 mm 2 mps 582 mmHg 51%
    15:00 -4°C° 0.1 mm 2 mps 581 mmHg 52%
    16:00 -4°C° 0.1 mm 2 mps 581 mmHg 54%
    17:00 -6°C° 0.1 mm 2 mps 581 mmHg 59%
    18:00 -7°C° 0.1 mm 2 mps 581 mmHg 65%
    19:00 -9°C° 0.1 mm 2 mps 580 mmHg 70%
    20:00 -9°C° 0 mm 2 mps 580 mmHg 71%
    21:00 -10°C° 0 mm 2 mps 581 mmHg 72%
    22:00 -10°C° 0 mm 2 mps 581 mmHg 73%
    23:00 -10°C° 0 mm 2 mps 581 mmHg 72%

    Day after tomorrow, 20 February, Thursday

    Time Temperature Precipitation Wind Pressure Humidity
    00:00 -10°C° 0 mm 2 mps 581 mmHg 72%
    01:00 -10°C° 0 mm 2 mps 581 mmHg 71%
    02:00 -10°C° 0 mm 2 mps 581 mmHg 69%
    03:00 -10°C° 0 mm 2 mps 580 mmHg 68%
    04:00 -10°C° 0 mm 2 mps 580 mmHg 66%
    05:00 -9°C° 0 mm 1 mps 580 mmHg 65%
    06:00 -9°C° 0 mm 1 mps 581 mmHg 64%
    07:00 -9°C° 0 mm 1 mps 581 mmHg 63%
    08:00 -7°C° 0 mm 1 mps 581 mmHg 60%
    09:00 -6°C° 0 mm 1 mps 582 mmHg 56%
    10:00 -4°C° 0 mm 0 mps 583 mmHg 52%
    11:00 -2°C° 0 mm 1 mps 583 mmHg 53%
    12:00 -1°C° 0 mm 1 mps 583 mmHg 53%
    13:00 0°C° 0 mm 1 mps 584 mmHg 54%
    14:00 -1°C° 0 mm 1 mps 583 mmHg 56%
    15:00 -1°C° 0 mm 1 mps 583 mmHg 57%
    16:00 -1°C° 0 mm 1 mps 583 mmHg 59%
    17:00 -2°C° 0 mm 1 mps 582 mmHg 63%
    18:00 -4°C° 0 mm 1 mps 582 mmHg 67%
    19:00 -6°C° 0 mm 0 mps 581 mmHg 71%
    20:00 -6°C° 0 mm 0 mps 581 mmHg 69%
    21:00 -6°C° 0 mm 0 mps 581 mmHg 66%
    22:00 -6°C° 0 mm 0 mps 581 mmHg 64%
    23:00 -6°C° 0 mm 0 mps 581 mmHg 63%

    21 February, Friday

    Time Temperature Precipitation Wind Pressure Humidity
    00:00 -6°C° 0 mm 0 mps 581 mmHg 61%
    01:00 -6°C° 0 mm 1 mps 581 mmHg 60%
    02:00 -6°C° 0 mm 1 mps 581 mmHg 59%
    03:00 -6°C° 0 mm 1 mps 582 mmHg 58%
    04:00 -6°C° 0 mm 1 mps 582 mmHg 56%
    05:00 -6°C° 0 mm 1 mps 582 mmHg 58%
    06:00 -8°C° 0 mm 2 mps 582 mmHg 60%
    07:00 -8°C° 0 mm 2 mps 582 mmHg 62%
    14:00 +1°C° 0 mm 2 mps 587 mmHg 56%
    15:00 -1°C° 0 mm 2 mps 587 mmHg 59%
    16:00 -1°C° 0 mm 2 mps 587 mmHg 62%
    17:00 -3°C° 0 mm 2 mps 586 mmHg 64%
    18:00 -4°C° 0 mm 2 mps 586 mmHg 67%
    19:00 -6°C° 0 mm 2 mps 585 mmHg 70%
    20:00 -4°C° 0 mm 1 mps 586 mmHg 66%
    21:00 -6°C° 0 mm 1 mps 586 mmHg 62%
    22:00 -6°C° 0 mm 1 mps 586 mmHg 58%
    23:00 -6°C° 0 mm 1 mps 586 mmHg 57%

    22 February, Saturday

    Time Temperature Precipitation Wind Pressure Humidity
    00:00 -6°C° 0 mm 1 mps 586 mmHg 56%
    01:00 -6°C° 0 mm 1 mps 586 mmHg 54%
    02:00 -6°C° 0 mm 0 mps 586 mmHg 53%
    03:00 -6°C° 0 mm 0 mps 586 mmHg 52%
    04:00 -6°C° 0 mm 0 mps 586 mmHg 51%
    05:00 -6°C° 0 mm 1 mps 586 mmHg 49%
    06:00 -6°C° 0 mm 1 mps 586 mmHg 47%
    07:00 -6°C° 0 mm 1 mps 586 mmHg 44%
    08:00 -3°C° 0 mm 1 mps 587 mmHg 44%
    09:00 -1°C° 0 mm 1 mps 588 mmHg 43%
    10:00 +1°C° 0 mm 1 mps 589 mmHg 43%
    11:00 +2°C° 0 mm 1 mps 589 mmHg 45%
    12:00 +3°C° 0 mm 1 mps 590 mmHg 48%
    13:00 +4°C° 0 mm 1 mps 590 mmHg 50%
    14:00 +3°C° 0 mm 1 mps 590 mmHg 51%
    15:00 +3°C° 0 mm 1 mps 589 mmHg 53%
    16:00 +3°C° 0 mm 1 mps 589 mmHg 54%
    17:00 +2°C° 0 mm 1 mps 589 mmHg 54%
    18:00 0°C° 0 mm 1 mps 588 mmHg 54%
    19:00 -1°C° 0 mm 1 mps 588 mmHg 54%
    20:00 -1°C° 0 mm 1 mps 588 mmHg 52%
    21:00 -1°C° 0 mm 1 mps 588 mmHg 51%
    22:00 -1°C° 0 mm 1 mps 588 mmHg 50%
    23:00 -1°C° 0 mm 1 mps 588 mmHg 49%

    23 February, Sunday

    Time Temperature Precipitation Wind Pressure Humidity
    00:00 -1°C° 0 mm 1 mps 588 mmHg 49%
    01:00 -4°C° 0 mm 2 mps 588 mmHg 48%
    02:00 -4°C° 0 mm 2 mps 588 mmHg 48%
    03:00 -4°C° 0 mm 2 mps 588 mmHg 48%
    04:00 -4°C° 0 mm 2 mps 588 mmHg 48%
    05:00 -4°C° 0 mm 2 mps 588 mmHg 47%
    06:00 -4°C° 0 mm 2 mps 588 mmHg 46%
    07:00 -4°C° 0 mm 2 mps 588 mmHg 46%
    08:00 0°C° 0 mm 1 mps 588 mmHg 46%
    09:00 +2°C° 0 mm 1 mps 589 mmHg 47%
    10:00 +3°C° 0 mm 1 mps 590 mmHg 48%
    11:00 +4°C° 0 mm 1 mps 590 mmHg 49%
    12:00 +5°C° 0 mm 1 mps 590 mmHg 50%
    13:00 +6°C° 0 mm 1 mps 591 mmHg 52%
    14:00 +6°C° 0 mm 1 mps 590 mmHg 53%
    15:00 +6°C° 0 mm 1 mps 590 mmHg 55%
    16:00 +5°C° 0 mm 1 mps 589 mmHg 57%
    17:00 +4°C° 0 mm 1 mps 589 mmHg 58%
    18:00 +2°C° 0 mm 1 mps 588 mmHg 60%
    19:00 +1°C° 0 mm 1 mps 588 mmHg 61%
    20:00 +1°C° 0 mm 1 mps 588 mmHg 61%
    21:00 +1°C° 0 mm 1 mps 588 mmHg 60%
    22:00 0°C° 0 mm 1 mps 587 mmHg 59%
    23:00 0°C° 0 mm 1 mps 587 mmHg 59%
    Show more